Regional Weather Roundup
Issued by NWS Sterling, VA

Home | Current Version | Previous Version | Graphics & Text | Print | Product List | Glossary On
Versions: 1 2 3 4 5 6 7 8 9 10 11 12 13 14 15 16 17 18 19 20 21 22 23 24 25 26 27 28
000
ASUS41 KLWX 182211
RWRLWX

REGIONAL WEATHER ROUNDUP
NATIONAL WEATHER SERVICE BALTIMORE MD/WASHINGTON DC
500 PM EST SUN FEB 18 2018

Note: "FAIR" indicates few or no clouds below 12,000 feet
with no significant weather and/or obstructions to visibility.
 TC=TEMPERATURE CELSIUS

 * =Non NWS site. Station does not report precipitation (e.g. rain,
    snow, etc.), thunder, or fog.

DCZ001-MDZ009-015-VAZ040>042-051-053>054-182300-
WASHINGTON METRO

CITY           SKY/WX    TMP DP  RH WIND       PRES   REMARKS
WASHINGTON NAT MOCLDY    50  33  52 NE5       30.42S
DULLES         FAIR      49  28  44 CALM      30.41S
ANDREWS AFB    CLEAR     39  28  65 NW5       30.42R
FT BELVOIR     FAIR      51  27  38 CALM      30.41S
QUANTICO       FAIR      51  31  46 NE7       30.41F
COLLEGE PARK*  FAIR      48  28  45 CALM      30.42R
LEESBURG*      FAIR      48  32  53 CALM      30.41S
MANASSAS*      FAIR      50  28  42 CALM      30.41S
GAITHERSBURG*  FAIR      46  29  51 W5        30.42R

$$

MDZ006>007-011-014-182300-
BALTIMORE METRO

CITY           SKY/WX    TMP DP  RH WIND       PRES   REMARKS
BWI AIRPORT    MOCLDY    47  31  53 W3        30.42R
MD SCIENCE CTR   N/A     47  29  49 MISG      30.41R
MARTIN STATE   MOCLDY    45  37  76 SE7       30.44
ANNAPOLIS      FAIR      44  37  76 SE7       30.43R
FORT MEADE*    FAIR      45  30  57 W3        30.45R

$$

MDZ012-015-019>023-182300-
MARYLAND EASTERN SHORE

CITY           SKY/WX    TMP DP  RH WIND       PRES   REMARKS
OCEAN CITY     FAIR      43  34  70 E7        30.44R
SALISBURY      FAIR      48  31  51 NW6       30.43R
BAY BRIDGE AP* FAIR      46  32  57 SE7       30.43S
CAMBRIDGE*     CLEAR     46  30  53 NW3       30.44R
EASTON*        MOCLDY    46  30  53 NW3       30.47R

$$

MDZ017>025-182300-
SOUTHERN MARYLAND

CITY           SKY/WX    TMP DP  RH WIND       PRES   REMARKS
PATUXENT RIVER FAIR      47  33  58 NE6       30.42R
ST INIGOES     FAIR      48  30  49 NE6       30.41S
LEONARDTOWN*   FAIR      46  32  57 E5        30.44S

$$

MDZ003>005-182300-
NORTH CENTRAL MARYLAND

CITY           SKY/WX    TMP DP  RH WIND       PRES   REMARKS
FREDERICK*     PTCLDY    48  27  43 VRB3      30.43S
HAGERSTOWN APT FAIR      47  28  47 NW7       30.39R
WESTMINSTER*   FAIR      46  30  53 SW3       30.40R

$$

MDZ501>502-182300-
WESTERN MARYLAND

CITY           SKY/WX    TMP DP  RH WIND       PRES   REMARKS
OAKLAND*       FAIR      32  27  80 S3        30.30R
CUMBERLAND*    FAIR      52  28  40 NE3       30.42S

$$

VAZ025>031-182300-
SHENANDOAH VALLEY

CITY           SKY/WX    TMP DP  RH WIND       PRES   REMARKS
WINCHESTER*    FAIR      46  27  46 S5        30.39S
FRONT ROYAL*   FAIR      48  28  46 CALM      30.36S
LURAY*         FAIR      50  28  43 E5        30.35F
NEW MARKET*    FAIR      49  26  39 CALM      30.34S
STAUNTON*      FAIR      49  29  46 CALM      30.36S
WAYNESBORO*    FAIR      49  33  54 SE12G21   30.34R

$$

WVZ021-048>050-054>055-182300-
EASTERN WEST VIRGINIA PANHANDLE

CITY           SKY/WX    TMP DP  RH WIND       PRES   REMARKS
MARTINSBURG    FAIR      48  26  42 NW5       30.38R
PETERSBURG*    FAIR      49  25  38 CALM      30.33F

$$

VAZ036>039-050-182300-
CENTRAL FOOTHILLS

CITY           SKY/WX    TMP DP  RH WIND       PRES   REMARKS
CHARLOTTESVILL FAIR      53  29  39 S6        30.36S
CULPEPER*      FAIR      53  27  37 CALM      30.40R
ORANGE*        FAIR      50  28  43 CALM      30.38R
GORDONSVILLE*  FAIR      52  31  44 CALM      30.38R
WARRENTON*     FAIR      52  25  35 CALM      30.39R

$$

VAZ055>057-182300-
NORTH AND CENTRAL PIEDMONT

CITY           SKY/WX    TMP DP  RH WIND       PRES   REMARKS
FREDERICKSBRG* FAIR      53  31  43 NE7       30.39S
STAFFORD*      FAIR      51  31  47 E7        30.44R

$$

NCZ024-NYZ072-PAZ021-071-VAZ022-071-182300-
OTHER REGIONAL OBSERVATIONS

CITY           SKY/WX    TMP DP  RH WIND       PRES   REMARKS
NEW YORK CITY  FAIR      43  23  45 NW8       30.42R
PHILADELPHIA   MOCLDY    45  24  43 NW9       30.43R
PITTSBURGH     MOCLDY    39  26  59 S7        30.34F WCI  34
ROANOKE        FAIR      53  27  36 SE7       30.35S
RICHMOND       MOCLDY    54  31  41 SE3       30.39S
RALEIGH        FAIR      60  35  39 E8        30.34S

$$

ANZ530>537-182300-
MARINE OBSERVATIONS

STATION/POSITION TIME  TEMP    WIND        PRES
                       AIR SEA DIR/SP/G
                 (UTC) (F)     (DEG/KT/KT) (MB)
THOMAS PT LIGHT  2200   44 38  120/  7/  7   N/A
BALT KEY BRIDGE  2148   41     120/  7/  8 1030.3R
COVE POINT       2148   45      50/  8/  9 1030.5F
LEWISETTA        2148   44 45  120/  6/  7 1030.1R
SOLOMONS ISLAND  2148   42 41   80/  7/  8 1029.8S

$$





USA.gov is the U.S. government's official web portal to all federal, state and local government web resources and services.